This is the latest recevied weather packets stored in our database for station/object SQ5OUZ-1. If no packets are shown the sender has not sent any weather packets the latest 1 day(s).
| Time | Temp. | Humidity | Pressure | Rain* | Wind** | Luminosity | Snow |
|---|---|---|---|---|---|---|---|
| 1836274112 | 15° C | 86% | 1026 hPa | - | 0 m/s | - | - |
| 1836273958 | 15° C | 86% | 1026.1 hPa | - | 0 m/s | - | - |
| 1778032491 | 16.11° C | 41% | 1007.3 hPa | - | 0 m/s | - | - |
| 1778031587 | 16.67° C | 38% | 1007.3 hPa | - | 0 m/s | - | - |
| 1778030684 | 17.22° C | 37% | 1007.4 hPa | - | 0 m/s | - | - |
| 1778029781 | 17.22° C | 36% | 1007.3 hPa | - | 0 m/s | - | - |
| 1778028878 | 17.22° C | 37% | 1007.3 hPa | - | 0 m/s | - | - |
| 1778027974 | 16.67° C | 38% | 1007.4 hPa | - | 0 m/s | - | - |
| 1778027071 | 16.67° C | 38% | 1007.4 hPa | - | 0 m/s | - | - |
| 1778026168 | 16.11° C | 38% | 1007.4 hPa | - | 0 m/s | - | - |
| 1778025265 | 16.67° C | 38% | 1007.5 hPa | - | 0 m/s | - | - |
| 1778024361 | 16.67° C | 38% | 1007.6 hPa | - | 0 m/s | - | - |
| 1778023458 | 17.22° C | 37% | 1007.6 hPa | - | 0 m/s | - | - |
| 1778022555 | 17.22° C | 37% | 1007.5 hPa | - | 0 m/s | - | - |
| 1778021652 | 17.22° C | 37% | 1007.6 hPa | - | 0 m/s | - | - |
| 1778020748 | 17.78° C | 36% | 1007.4 hPa | - | 0 m/s | - | - |
| 1778019844 | 17.78° C | 36% | 1007.5 hPa | - | 0 m/s | - | - |
| 1778018941 | 18.33° C | 35% | 1007.6 hPa | - | 0 m/s | - | - |
| 1778018038 | 18.89° C | 33% | 1007.7 hPa | - | 0 m/s | - | - |
| 1778017134 | 18.89° C | 33% | 1007.6 hPa | - | 0 m/s | - | - |
| 1778016231 | 18.89° C | 33% | 1007.6 hPa | - | 0 m/s | - | - |
| 1778015328 | 19.44° C | 31% | 1007.5 hPa | - | 0 m/s | - | - |
| 1778014422 | 20° C | 31% | 1007.5 hPa | - | 0 m/s | - | - |
| 1778013519 | 20° C | 30% | 1007.4 hPa | - | 0 m/s | - | - |
| 1778012616 | 20.56° C | 30% | 1007.4 hPa | - | 0 m/s | - | - |
* Rain since midnight (hover to see other rain measurements)
** Current wind speed in m/s (hover to see current wind gust speed)